Theta_e
350 349 346 341 344 350 347 344 347 349 347 347 346 352 351 348 349 349 341 343 345 344 344 343 342 341 341 340 340 340 340 336 333 329 319 313 309 309
348 351 349 352 348 350 347 346 347 349 346 343 345 349 349 347 347 346 345 346 343 344 344 344 343 343 342 341 340 340 339 338 336 335 332 319 312 309
346 345 347 347 347 339 344 346 346 347 345 348 348 349 347 349 348 348 345 343 344 345 345 343 343 343 343 342 340 339 339 338 337 337 337 330 320 310
341 348 342 349 350 350 349 349 345 347 347 345 346 343 341 349 350 348 349 351 349 348 347 346 343 343 342 342 341 339 338 338 337 336 336 334 328 312
348 350 346 347 348 344 346 347 345 348 345 349 349 348 342 348 350 350 347 345 345 345 345 346 345 342 341 342 341 340 339 339 336 333 333 330 321 314
346 344 347 347 343 344 346 346 346 342 342 343 346 346 346 350 349 348 345 345 346 346 347 347 345 344 342 339 340 340 339 337 330 327 326 322 312 310
347 347 347 347 347 348 347 347 346 344 343 344 346 344 343 343 344 345 346 346 348 348 346 343 344 344 342 339 337 337 337 333 325 321 317 313 311 309
345 346 346 346 346 345 345 349 351 348 346 343 343 344 343 343 344 345 344 342 343 346 347 344 343 342 336 335 336 335 332 325 320 318 316 309 310 304
346 347 345 344 348 350 350 350 350 348 346 345 345 343 343 344 344 345 344 342 344 344 347 345 341 337 334 331 332 327 322 325 322 317 311 310 304 302
346 348 347 346 347 346 346 342 343 343 343 343 344 343 341 340 339 343 343 342 343 342 344 344 342 334 331 327 325 324 327 324 318 312 314 306 304 304
345 344 343 345 346 345 344 344 342 342 343 342 342 342 340 341 343 344 343 344 342 342 344 343 343 338 329 326 326 327 324 321 315 315 309 308 307 306
342 347 348 347 345 342 342 343 343 343 343 342 342 342 340 342 343 342 342 342 342 343 342 339 336 332 329 328 324 326 322 320 317 315 310 309 308 307
346 347 347 344 343 344 343 344 344 344 342 343 343 344 343 341 342 341 340 340 339 336 334 333 330 330 329 328 326 326 323 319 317 314 311 311 310 307
339 341 343 344 343 343 342 342 342 341 341 340 342 339 338 339 338 336 333 333 332 331 330 330 330 328 327 326 325 323 321 318 316 315 313 314 311 307
338 338 339 341 340 340 340 340 340 339 339 340 339 338 336 334 332 331 331 331 330 329 327 326 325 324 323 323 321 320 319 318 317 317 316 314 311 310
340 340 338 338 337 337 336 337 337 335 335 334 334 333 332 331 330 329 329 328 325 323 320 317 318 321 322 320 317 318 319 318 318 317 313 310 314 315
336 336 335 334 334 332 332 332 330 330 331 332 331 331 330 329 328 327 323 320 317 318 313 310 312 313 316 319 319 317 315 316 316 315 314 313 315 315
332 332 333 332 330 329 330 330 330 331 331 330 330 329 328 326 324 321 318 316 316 316 316 315 316 316 316 316 318 320 319 317 317 316 316 315 315 314
332 332 331 332 331 331 330 330 329 328 328 327 327 326 325 322 313 312 317 318 318 317 316 315 316 316 317 317 318 316 318 317 318 316 316 315 314 315
331 330 330 329 328 328 328 327 327 326 326 325 323 320 312 311 316 316 316 317 318 317 316 314 313 314 313 314 314 315 313 311 315 316 316 315 314 313
326 326 326 325 325 324 324 323 321 319 317 316 316 317 317 316 316 317 316 314 316 317 315 315 315 315 314 312 310 312 312 313 313 310 312 314 313 311
329 327 326 326 325 324 320 319 320 318 314 317 317 316 316 315 315 314 314 315 314 314 315 315 315 314 312 312 312 312 313 314 312 311 310 308 305 304
322 321 321 321 320 320 319 318 318 317 316 316 316 315 315 314 313 313 312 312 312 314 313 313 313 313 313 312 311 311 310 310 313 312 312 311 309 308
Wind_Speed
10 10 10 8 8 14 12 13 7 11 15 10 9 4 2 7 6 11 14 11 10 9 9 8 8 9 9 9 10 11 11 12 13 13 13 13 12 12
10 14 15 10 13 11 8 13 12 14 14 12 12 1 7 9 10 12 18 16 14 13 10 10 9 10 11 10 10 11 11 11 12 13 15 14 14 14
12 15 14 12 13 14 14 12 13 9 12 9 10 10 12 13 15 21 15 14 9 9 10 12 13 13 13 12 12 12 12 12 12 13 14 14 14 14
10 10 14 8 12 13 10 10 13 14 16 15 17 21 16 16 19 22 16 8 16 15 16 17 16 16 16 15 14 14 14 14 14 14 15 15 15 13
13 14 11 14 17 16 17 16 19 17 13 15 16 14 13 16 18 15 17 16 16 15 17 16 16 15 17 17 18 17 17 18 17 15 15 14 13 12
15 16 19 20 21 15 16 19 17 18 18 18 19 19 18 17 19 20 18 15 17 19 20 18 16 17 17 16 18 19 18 17 16 14 13 11 9 10
18 18 19 15 14 17 19 19 21 21 21 20 20 20 21 20 21 21 18 12 14 20 22 16 18 17 19 19 17 15 17 17 15 11 8 8 8 8
21 20 17 18 19 17 16 16 17 18 20 22 24 24 24 22 19 16 14 13 17 17 14 16 16 19 19 19 17 19 19 16 12 9 8 4 6 3
22 20 20 18 13 19 17 16 19 18 20 21 23 23 23 19 19 18 15 15 14 15 13 17 18 20 22 21 24 21 16 18 13 7 3 3 0 2
26 23 22 21 20 23 25 23 23 21 18 17 18 18 18 20 19 21 18 19 16 16 19 20 20 23 27 26 26 20 19 14 11 8 4 3 1 1
27 26 25 25 25 23 20 19 20 22 20 19 19 21 23 23 24 26 27 22 22 22 22 23 25 25 25 21 19 17 11 10 11 7 8 6 4 2
19 16 20 21 24 23 21 21 22 20 21 21 20 24 27 28 28 26 25 22 19 18 18 16 13 9 5 8 7 6 6 6 8 10 11 9 6 5
17 20 22 21 21 19 19 20 21 19 20 21 22 22 20 17 14 13 13 14 16 16 12 8 4 3 5 7 8 7 7 7 7 10 10 9 7 6
12 16 19 19 22 22 18 17 16 16 14 14 15 14 13 11 12 11 9 5 2 1 1 1 4 4 5 6 6 7 6 7 8 10 10 9 8 8
19 17 15 15 15 15 14 13 12 12 9 9 10 10 8 5 2 1 1 1 2 3 5 5 5 4 3 3 4 5 5 6 9 8 7 7 5 4
7 7 5 3 1 0 3 3 2 3 3 3 3 3 3 4 3 1 2 1 2 2 3 3 2 4 4 4 6 5 2 2 3 2 3 3 4 3
2 2 3 3 5 7 7 7 6 4 3 2 2 2 2 2 2 1 2 4 6 6 10 9 10 10 7 5 5 8 5 3 3 3 3 2 3 8
6 5 5 5 5 3 2 1 1 2 2 2 2 2 2 1 1 1 2 9 9 5 5 7 7 6 6 5 3 4 5 4 4 5 2 6 10 8
3 2 1 2 2 2 2 3 3 2 1 1 2 3 3 1 4 6 6 7 4 2 2 2 3 6 7 11 8 7 6 2 7 8 7 7 8 12
2 2 2 3 2 2 2 3 1 1 3 3 3 3 5 7 7 7 4 3 1 7 4 4 6 6 5 4 4 4 6 7 9 7 8 8 10 12
5 5 4 4 3 1 1 2 2 2 2 4 6 5 4 2 2 3 5 6 7 5 5 8 8 7 10 14 5 10 13 10 7 7 15 12 7 8
3 4 3 2 2 3 2 2 2 2 2 6 4 2 3 3 3 3 4 7 3 2 9 8 6 10 8 5 8 9 9 10 8 9 4 5 9 13
5 6 5 6 6 6 3 3 2 1 1 2 4 5 4 5 5 4 6 4 4 3 4 6 7 12 9 6 5 9 6 11 9 9 9 10 9 11
Wind_Direction
253 279 306 282 272 325 284 300 327 293 320 333 14 172 249 288 289 314 321 320 310 305 309 311 311 320 328 331 338 341 344 346 348 351 350 350 349 347
252 262 262 258 276 279 318 325 318 296 305 310 317 271 255 324 304 299 311 302 299 295 291 297 299 301 308 314 318 324 331 334 338 341 345 344 344 343
247 252 286 258 275 283 277 281 286 317 327 277 331 330 332 310 312 318 313 298 300 309 306 308 305 299 297 297 300 308 318 326 329 335 343 338 336 334
254 253 260 255 279 280 295 301 292 298 298 302 304 286 284 305 295 300 305 301 289 285 284 297 303 300 295 291 291 295 303 311 317 324 333 327 328 327
248 251 261 267 268 263 261 267 271 278 290 292 286 287 289 299 278 287 298 287 273 273 278 290 301 307 309 298 292 292 298 308 313 318 319 318 318 316
263 262 261 263 261 264 267 265 282 283 279 271 276 278 275 269 285 294 296 279 279 278 274 277 284 291 307 307 301 297 300 304 310 315 324 320 311 314
249 257 264 269 272 267 274 283 289 287 287 287 284 287 286 286 287 292 287 288 283 282 281 289 278 285 290 298 305 302 302 303 307 314 316 313 315 321
252 256 260 250 258 272 279 281 281 286 288 283 282 285 290 294 302 299 290 291 275 272 286 254 266 275 279 282 287 290 292 296 295 288 296 316 316 352
261 259 262 263 263 274 268 264 274 284 280 281 283 287 287 294 299 293 279 269 260 269 245 243 258 258 267 273 279 278 283 305 293 274 260 287 44 96
248 254 260 265 252 257 264 274 278 282 281 280 278 281 285 286 283 276 278 282 274 267 249 252 252 242 249 247 253 274 297 289 257 228 228 173 175 150
257 257 260 262 263 264 266 271 274 279 278 281 278 276 277 275 270 270 274 267 274 269 273 257 253 246 240 257 272 284 286 263 237 240 187 201 209 219
256 264 258 259 263 267 268 269 271 274 276 279 274 270 272 275 278 284 281 266 254 255 255 259 271 265 273 290 283 294 277 253 239 217 194 209 216 234
248 246 262 265 264 264 263 263 267 270 274 274 275 279 282 286 291 293 289 276 267 267 263 288 313 329 282 300 308 301 271 241 227 205 211 221 226 220
251 258 262 265 273 275 263 259 258 264 268 272 269 273 279 287 295 300 301 297 317 344 30 15 274 268 270 277 285 285 261 238 214 211 220 234 233 220
272 270 269 275 276 275 266 264 264 262 252 244 259 270 283 285 289 149 196 264 204 192 194 238 276 289 283 321 328 320 297 246 235 229 236 260 243 208
245 253 269 269 208 164 284 247 257 251 238 249 250 148 134 158 172 239 283 283 48 27 10 343 15 37 66 70 49 29 26 80 132 213 287 225 176 222
166 182 168 152 125 131 127 128 133 130 102 125 158 191 223 234 228 226 158 60 64 80 71 58 79 88 92 57 50 66 51 60 74 90 41 113 332 306
127 135 135 130 133 146 151 219 290 297 287 258 241 212 228 195 145 124 128 109 73 48 38 45 67 58 34 342 287 244 272 317 295 276 260 319 287 282
132 162 216 267 259 259 257 272 275 271 229 210 196 180 153 145 132 119 114 95 85 159 235 328 336 319 305 327 270 248 270 329 260 263 269 305 293 291
202 220 226 277 259 217 206 247 318 124 144 152 147 127 122 116 70 56 36 20 281 233 258 290 237 248 266 294 285 264 292 264 244 230 242 275 279 263
75 71 73 51 53 48 13 132 116 115 118 117 85 85 72 95 282 266 225 272 231 224 251 274 266 288 296 306 303 305 281 273 298 306 259 258 263 308
36 48 70 89 113 262 349 49 107 278 121 134 166 197 202 152 252 291 247 267 317 266 262 270 293 321 343 329 310 321 315 254 297 315 305 275 269 256
188 210 224 215 226 204 198 136 216 121 90 140 219 208 220 221 257 233 244 277 263 265 262 271 305 290 301 301 288 323 316 303 286 297 270 275 257 264